Time,TemperatureF,DewpointF,PressureIn,WindDirection,WindDirectionDegrees,WindSpeedMPH,WindSpeedGustMPH,Humidity,HourlyPrecipIn,Conditions,Clouds,dailyrainin,SoftwareType,DateUTC
2013-07-21 00:00:00,64.8,54.9,29.60,NW,315,0.0,0.0,70,0.00,,,0.01,WUHU216HW,2013-07-21 07:00:00,
2013-07-21 00:05:00,64.8,54.9,29.60,NW,315,0.0,0.0,70,0.00,,,0.01,WUHU216HW,2013-07-21 07:05:00,
2013-07-21 00:29:00,63.7,54.9,29.60,North,0,1.1,1.1,73,0.00,,,0.00,WUHU216HW,2013-07-21 07:29:00,
2013-07-21 00:30:00,63.7,54.9,29.60,North,0,1.1,1.1,73,0.00,,,0.00,WUHU216HW,2013-07-21 07:30:00,
2013-07-21 00:35:00,63.7,54.9,29.60,North,0,1.1,1.1,73,0.00,,,0.00,WUHU216HW,2013-07-21 07:35:00,
2013-07-21 00:59:00,62.6,53.8,29.60,WNW,293,0.0,0.0,73,0.00,,,0.00,WUHU216HW,2013-07-21 07:59:00,
2013-07-21 01:00:00,62.6,53.8,29.60,WNW,293,0.0,0.0,73,0.00,,,0.00,WUHU216HW,2013-07-21 08:00:00,
2013-07-21 01:05:00,62.6,53.8,29.60,WNW,293,0.0,0.0,73,0.00,,,0.00,WUHU216HW,2013-07-21 08:05:00,
2013-07-21 01:29:00,61.7,53.4,29.60,SSW,203,0.0,0.0,74,0.00,,,0.00,WUHU216HW,2013-07-21 08:29:00,
2013-07-21 01:30:00,61.7,53.4,29.60,SSW,203,0.0,0.0,74,0.00,,,0.00,WUHU216HW,2013-07-21 08:30:00,
2013-07-21 01:35:00,61.7,53.4,29.60,SSW,203,0.0,0.0,74,0.00,,,0.00,WUHU216HW,2013-07-21 08:35:00,
2013-07-21 01:59:00,60.8,52.9,29.60,WSW,248,0.0,0.0,75,0.00,,,0.00,WUHU216HW,2013-07-21 08:59:00,
2013-07-21 02:00:00,60.8,52.9,29.60,WSW,248,0.0,0.0,75,0.00,,,0.00,WUHU216HW,2013-07-21 09:00:00,
2013-07-21 02:05:00,60.8,52.9,29.60,WSW,248,0.0,0.0,75,0.00,,,0.00,WUHU216HW,2013-07-21 09:05:00,
2013-07-21 02:29:00,60.1,52.9,29.60,WSW,248,0.0,0.0,77,0.00,,,0.00,WUHU216HW,2013-07-21 09:29:00,
2013-07-21 02:30:00,60.1,52.9,29.60,WSW,248,0.0,0.0,77,0.00,,,0.00,WUHU216HW,2013-07-21 09:30:00,
2013-07-21 02:35:00,60.1,52.9,29.60,WSW,248,0.0,0.0,77,0.00,,,0.00,WUHU216HW,2013-07-21 09:35:00,
2013-07-21 02:59:00,59.6,53.1,29.60,South,180,0.0,0.0,79,0.00,,,0.00,WUHU216HW,2013-07-21 09:59:00,
2013-07-21 03:00:00,59.6,53.1,29.60,South,180,0.0,0.0,79,0.00,,,0.00,WUHU216HW,2013-07-21 10:00:00,
2013-07-21 03:05:00,59.6,53.1,29.60,South,180,0.0,0.0,79,0.00,,,0.00,WUHU216HW,2013-07-21 10:05:00,
2013-07-21 03:29:00,59.0,52.9,29.60,West,270,0.0,0.0,80,0.00,,,0.00,WUHU216HW,2013-07-21 10:29:00,
2013-07-21 03:30:00,59.0,52.9,29.60,West,270,0.0,0.0,80,0.00,,,0.00,WUHU216HW,2013-07-21 10:30:00,
2013-07-21 03:35:00,59.0,52.9,29.60,West,270,0.0,0.0,80,0.00,,,0.00,WUHU216HW,2013-07-21 10:35:00,
2013-07-21 03:59:00,59.0,53.6,29.60,SSE,158,2.5,2.5,82,0.00,,,0.00,WUHU216HW,2013-07-21 10:59:00,
2013-07-21 04:00:00,59.0,53.6,29.60,SSE,158,2.5,2.5,82,0.00,,,0.00,WUHU216HW,2013-07-21 11:00:00,
2013-07-21 04:05:00,59.0,53.6,29.60,SSE,158,2.5,2.5,82,0.00,,,0.00,WUHU216HW,2013-07-21 11:05:00,
2013-07-21 04:29:00,59.0,53.6,29.60,SSW,203,0.0,0.0,82,0.00,,,0.00,WUHU216HW,2013-07-21 11:29:00,
2013-07-21 04:30:00,59.0,53.6,29.60,SSW,203,0.0,0.0,82,0.00,,,0.00,WUHU216HW,2013-07-21 11:30:00,
2013-07-21 04:35:00,59.0,53.6,29.60,SSW,203,0.0,0.0,82,0.00,,,0.00,WUHU216HW,2013-07-21 11:35:00,
2013-07-21 04:59:00,58.7,53.6,29.60,WSW,248,0.2,0.2,83,0.00,,,0.00,WUHU216HW,2013-07-21 11:59:00,
2013-07-21 05:00:00,58.7,53.6,29.60,WSW,248,0.2,0.2,83,0.00,,,0.00,WUHU216HW,2013-07-21 12:00:00,
2013-07-21 05:05:00,58.7,53.6,29.60,WSW,248,0.2,0.2,83,0.00,,,0.00,WUHU216HW,2013-07-21 12:05:00,
2013-07-21 05:29:00,58.3,53.5,29.60,SSW,203,0.4,0.4,84,0.00,,,0.00,WUHU216HW,2013-07-21 12:29:00,
2013-07-21 05:30:00,58.3,53.5,29.60,SSW,203,0.4,0.4,84,0.00,,,0.00,WUHU216HW,2013-07-21 12:30:00,
2013-07-21 05:35:00,58.3,53.5,29.60,SSW,203,0.4,0.4,84,0.00,,,0.00,WUHU216HW,2013-07-21 12:35:00,
2013-07-21 05:59:00,58.0,53.8,29.61,SSW,203,0.7,0.7,86,0.00,,,0.00,WUHU216HW,2013-07-21 12:59:00,
2013-07-21 06:00:00,58.0,53.8,29.61,SSW,203,0.7,0.7,86,0.00,,,0.00,WUHU216HW,2013-07-21 13:00:00,
2013-07-21 06:05:00,58.0,53.8,29.61,SSW,203,0.7,0.7,86,0.00,,,0.00,WUHU216HW,2013-07-21 13:05:00,
2013-07-21 06:29:00,57.8,53.3,29.61,SSE,158,2.7,2.7,85,0.00,,,0.00,WUHU216HW,2013-07-21 13:29:00,
2013-07-21 06:30:00,57.8,53.3,29.61,SSE,158,2.7,2.7,85,0.00,,,0.00,WUHU216HW,2013-07-21 13:30:00,
2013-07-21 06:35:00,57.8,53.3,29.61,SSE,158,2.7,2.7,85,0.00,,,0.00,WUHU216HW,2013-07-21 13:35:00,
2013-07-21 06:59:00,57.6,53.7,29.61,SSE,158,1.1,1.1,87,0.00,,,0.00,WUHU216HW,2013-07-21 13:59:00,
2013-07-21 07:00:00,57.6,53.7,29.61,SSE,158,1.1,1.1,87,0.00,,,0.00,WUHU216HW,2013-07-21 14:00:00,
2013-07-21 07:05:00,57.6,53.7,29.61,SSE,158,1.1,1.1,87,0.00,,,0.00,WUHU216HW,2013-07-21 14:05:00,
2013-07-21 07:29:00,58.0,53.8,29.61,West,270,1.6,1.6,86,0.00,,,0.00,WUHU216HW,2013-07-21 14:29:00,
2013-07-21 07:30:00,58.0,53.8,29.61,West,270,1.6,1.6,86,0.00,,,0.00,WUHU216HW,2013-07-21 14:30:00,
2013-07-21 07:35:00,58.0,53.8,29.61,West,270,1.6,1.6,86,0.00,,,0.00,WUHU216HW,2013-07-21 14:35:00,
2013-07-21 07:59:00,58.1,54.0,29.61,SSW,203,0.0,0.0,86,0.00,,,0.00,WUHU216HW,2013-07-21 14:59:00,
2013-07-21 08:00:00,58.1,54.0,29.61,SSW,203,0.0,0.0,86,0.00,,,0.00,WUHU216HW,2013-07-21 15:00:00,
2013-07-21 08:05:00,58.1,54.0,29.61,SSW,203,0.0,0.0,86,0.00,,,0.00,WUHU216HW,2013-07-21 15:05:00,
2013-07-21 08:29:00,58.7,54.8,29.61,SSW,203,1.1,1.1,87,0.00,,,0.00,WUHU216HW,2013-07-21 15:29:00,
2013-07-21 08:30:00,58.7,54.8,29.61,SSW,203,1.1,1.1,87,0.00,,,0.00,WUHU216HW,2013-07-21 15:30:00,
2013-07-21 08:35:00,58.7,54.8,29.61,SSW,203,1.1,1.1,87,0.00,,,0.00,WUHU216HW,2013-07-21 15:35:00,
2013-07-21 08:59:00,59.4,54.9,29.62,SW,225,0.0,0.0,85,0.00,,,0.00,WUHU216HW,2013-07-21 15:59:00,
2013-07-21 09:00:00,59.4,54.9,29.62,SW,225,0.0,0.0,85,0.00,,,0.00,WUHU216HW,2013-07-21 16:00:00,
2013-07-21 09:05:00,59.4,54.9,29.62,SW,225,0.0,0.0,85,0.00,,,0.00,WUHU216HW,2013-07-21 16:05:00,
2013-07-21 09:29:00,60.5,55.4,29.62,West,270,0.7,0.7,83,0.00,,,0.00,WUHU216HW,2013-07-21 16:29:00,
2013-07-21 09:30:00,60.5,55.4,29.62,West,270,0.7,0.7,83,0.00,,,0.00,WUHU216HW,2013-07-21 16:30:00,
2013-07-21 09:35:00,60.5,55.4,29.62,West,270,0.7,0.7,83,0.00,,,0.00,WUHU216HW,2013-07-21 16:35:00,
2013-07-21 09:59:00,62.1,56.2,29.61,SSE,158,1.3,1.3,81,0.00,,,0.00,WUHU216HW,2013-07-21 16:59:00,
2013-07-21 10:00:00,62.1,56.2,29.61,SSE,158,1.3,1.3,81,0.00,,,0.00,WUHU216HW,2013-07-21 17:00:00,
2013-07-21 10:05:00,62.1,56.2,29.61,SSE,158,1.3,1.3,81,0.00,,,0.00,WUHU216HW,2013-07-21 17:05:00,
2013-07-21 10:29:00,63.0,56.3,29.61,South,180,0.0,0.0,79,0.00,,,0.00,WUHU216HW,2013-07-21 17:29:00,
2013-07-21 10:30:00,63.0,56.3,29.61,South,180,0.0,0.0,79,0.00,,,0.00,WUHU216HW,2013-07-21 17:30:00,
2013-07-21 10:35:00,63.0,56.3,29.61,South,180,0.0,0.0,79,0.00,,,0.00,WUHU216HW,2013-07-21 17:35:00,
2013-07-21 10:59:00,63.5,56.9,29.61,North,0,0.0,0.0,79,0.00,,,0.00,WUHU216HW,2013-07-21 17:59:00,
2013-07-21 11:00:00,63.5,56.9,29.61,North,0,0.0,0.0,79,0.00,,,0.00,WUHU216HW,2013-07-21 18:00:00,
2013-07-21 11:05:00,63.5,56.9,29.61,North,0,0.0,0.0,79,0.00,,,0.00,WUHU216HW,2013-07-21 18:05:00,
2013-07-21 11:30:00,64.8,56.7,29.61,SSW,203,0.9,0.9,75,0.01,,,0.00,WUHU216HW,2013-07-21 18:30:00,
2013-07-21 11:35:00,64.8,56.7,29.61,SSW,203,0.9,0.9,75,0.01,,,0.00,WUHU216HW,2013-07-21 18:35:00,
2013-07-21 12:00:00,65.7,57.2,29.61,South,180,1.8,1.8,74,0.02,,,0.01,WUHU216HW,2013-07-21 19:00:00,
2013-07-21 12:05:00,65.7,57.2,29.61,South,180,1.8,1.8,74,0.02,,,0.01,WUHU216HW,2013-07-21 19:05:00,
2013-07-21 12:30:00,67.0,57.6,29.60,SSW,203,3.4,3.4,72,0.01,,,0.02,WUHU216HW,2013-07-21 19:30:00,
2013-07-21 12:35:00,67.0,57.6,29.60,SSW,203,3.4,3.4,72,0.01,,,0.02,WUHU216HW,2013-07-21 19:35:00,
2013-07-21 13:00:00,68.6,58.4,29.61,South,180,1.3,1.3,70,0.00,,,0.02,WUHU216HW,2013-07-21 20:00:00,
2013-07-21 13:05:00,68.6,58.4,29.61,South,180,1.3,1.3,70,0.00,,,0.02,WUHU216HW,2013-07-21 20:05:00,